Terminal Aerodrome Forecast
Issued by NWS Quad Cities IA IL

Home | Current Version | Previous Version | Text Only | Print | Product List | Glossary On
Versions: 1 2 3 4 5 6 7 8 9 10 11 12 13 14 15 16 17 18 19
000
FTUS43 KDVN 271100
TAFDBQ
TAF
KDBQ 271121Z 2712/2812 04006KT P6SM SCT040 SCT100
     FM280900 09006KT 6SM BR SCT100 PROB30 2809/2812 -TSRA BKN035CB=

USA.gov is the U.S. government's official web portal to all federal, state and local government web resources and services.